Location: Wien
(48.2082°N, 16.3738°E)
Time: 22:21:49
(UTC+02:00)

ARIANE 6 FM1 Upper Stage - Visible Passes

Search period start: 19 September 2024 00:00
Search period end: 29 September 2024 00:00
Orbit: 566 x 594 km, 62.0° (Epoch: 19 September)

Date Brightness Start Highest point End Pass type
(mag) Time Alt. Az. Time Alt. Az. Time Alt. Az.
19 Sep 5.3 02:50:55 17° N 02:51:46 18° NNE 02:54:51 10° ENE visible
19 Sep 3.4 04:27:38 10° NW 04:31:58 57° NE 04:36:16 10° ESE visible
19 Sep 3.9 06:07:32 10° WNW 06:11:01 23° WSW 06:14:30 10° S visible
19 Sep 4.2 20:12:55 10° SSE 20:14:59 18° SE 20:14:59 18° SE visible
19 Sep 5.1 21:50:39 10° SW 21:51:27 15° SW 21:51:27 15° SW visible
20 Sep 5.1 02:56:51 22° NNE 02:56:51 22° NNE 03:00:12 10° ENE visible
20 Sep 2.7 04:33:17 16° NW 04:36:44 83° NE 04:41:07 10° SE visible
20 Sep 3.5 20:16:48 10° S 20:20:30 29° ESE 20:21:46 25° E visible
20 Sep 4.3 21:55:34 10° WSW 21:58:12 32° W 21:58:12 32° W visible
21 Sep 5.1 03:03:23 21° ENE 03:03:23 21° ENE 03:05:29 10° E visible
21 Sep 2.6 04:39:51 37° WNW 04:41:26 66° SW 04:45:45 10° SSE visible
21 Sep 3.0 20:21:01 10° SSW 20:25:05 45° SE 20:27:57 18° ENE visible
21 Sep 4.3 22:00:37 10° W 22:04:20 34° NW 22:04:20 34° NW visible
22 Sep 5.6 03:10:25 11° E 03:10:25 11° E 03:10:40 10° ESE visible
22 Sep 3.3 04:46:54 38° SSW 04:46:54 38° SSW 04:50:12 10° SSE visible
22 Sep 2.6 20:25:28 10° SSW 20:29:42 69° SE 20:33:34 13° NE visible
22 Sep 4.7 22:05:47 10° W 22:09:27 26° NNW 22:09:55 26° NNW visible
23 Sep 5.1 04:54:10 11° S 04:54:10 11° S 04:54:22 10° S visible
23 Sep 2.8 20:30:06 10° SW 20:34:23 80° NW 20:38:44 10° NE visible
23 Sep 5.1 22:11:02 10° WNW 22:14:23 21° NNW 22:15:05 20° N visible
24 Sep 3.4 20:34:55 10° WSW 20:39:07 54° NW 20:43:23 10° NE visible
24 Sep 5.3 22:16:22 10° WNW 22:19:21 18° NNW 22:19:59 17° N visible
25 Sep 4.1 20:39:51 10° WSW 20:43:54 39° NW 20:47:59 10° NNE visible
25 Sep 5.5 22:21:43 10° NW 22:24:21 15° NNW 22:24:41 15° N visible
26 Sep 2.9 19:04:57 10° SSW 19:09:07 56° SE 19:13:22 10° NE visible
26 Sep 4.6 20:44:56 10° W 20:48:44 29° NNW 20:52:34 10° NNE visible
26 Sep 5.6 22:27:02 10° NW 22:29:16 14° N 22:29:16 14° N visible
27 Sep 2.7 19:09:27 10° SW 19:13:44 86° SE 19:18:05 10° NE visible
27 Sep 4.9 20:50:06 10° W 20:53:36 23° NNW 20:57:07 10° NNE visible
27 Sep 5.7 22:32:14 10° NNW 22:33:47 13° NNW 22:33:47 13° NNW visible
28 Sep 3.2 19:14:08 10° SW 19:18:23 65° NW 19:22:42 10° NE visible
28 Sep 5.2 20:55:22 10° WNW 20:58:30 19° NNW 21:01:40 10° NNE visible
28 Sep 5.8 22:37:17 10° NNW 22:38:13 12° NNW 22:38:13 12° NNW visible
